EST,Max TemperatureF,Mean TemperatureF,Min TemperatureF,Max Dew PointF,MeanDew PointF,Min DewpointF,Max Humidity, Mean Humidity, Min Humidity, Max Sea Level PressureIn, Mean Sea Level PressureIn, Min Sea Level PressureIn, Max VisibilityMiles, Mean VisibilityMiles, Min VisibilityMiles, Max Wind SpeedMPH, Mean Wind SpeedMPH, Max Gust SpeedMPH,PrecipitationIn, CloudCover, Events, WindDirDegrees
2013-1-1,48,44,39,46,42,26,100,90,49,30.05,29.97,29.92,10,4,0,8,2,,0.27,8,Fog-Rain,246
2013-1-2,48,45,41,45,42,30,100,89,62,30.13,29.98,29.89,10,4,0,7,1,,0.07,8,Fog-Rain,55
2013-1-3,44,38,32,36,32,23,93,76,59,30.25,30.16,30.09,10,8,2,7,4,,0.00,6,,15
2013-1-4,50,40,30,24,19,13,75,51,25,30.32,30.26,30.19,10,10,10,10,5,17,0.00,1,,296
2013-1-5,48,37,26,28,21,18,75,54,30,30.36,30.28,30.19,10,10,10,6,2,,0.00,2,Rain,274
2013-1-6,54,46,37,37,33,26,89,68,48,30.19,30.11,30.00,10,10,5,8,1,,0.01,3,Rain,332
2013-1-7,50,40,30,28,26,24,79,58,36,30.38,30.32,30.17,10,10,10,9,2,,0.00,0,,3
2013-1-8,51,39,27,38,31,24,89,75,54,30.44,30.38,30.34,10,10,7,5,1,,0.00,4,,331
2013-1-9,59,50,42,48,41,34,89,76,60,30.42,30.37,30.34,10,10,8,6,3,,0.00,5,,307
2013-1-10,66,56,46,48,42,33,93,65,42,30.48,30.41,30.33,10,9,4,7,2,,0.00,2,,47
2013-1-11,53,48,44,47,44,36,100,93,51,30.37,30.23,30.14,10,3,0,10,3,,0.22,8,Fog-Rain,39
2013-1-12,66,57,48,60,51,46,100,93,75,30.17,30.11,30.05,10,4,0,4,0,,0.01,6,Fog,10
2013-1-13,71,62,53,58,56,52,100,90,63,30.09,30.06,29.99,10,4,0,17,3,25,0.01,4,Fog,192
2013-1-14,64,62,57,63,61,56,100,95,86,30.12,30.07,30.01,10,4,1,12,5,24,0.41,8,Rain,195
2013-1-15,57,49,41,55,45,39,100,93,87,30.18,30.12,30.05,10,5,2,10,7,17,0.60,8,Rain,50
2013-1-16,48,44,41,48,42,39,97,92,87,30.06,29.99,29.95,10,4,2,5,1,,0.45,8,Rain,35
2013-1-17,50,42,33,49,42,30,100,94,87,30.16,29.94,29.82,10,3,0,22,5,30,2.29,8,Fog-Rain-Snow,24
2013-1-18,46,38,30,30,24,20,92,60,34,30.48,30.39,30.20,10,10,10,7,2,,0.00,0,,337
2013-1-19,53,39,25,29,25,22,92,62,35,30.44,30.30,30.12,10,10,7,10,2,16,0.00,0,,212
2013-1-20,62,46,30,32,26,20,82,50,24,30.10,30.05,29.99,10,10,10,15,4,22,0.00,0,,305
2013-1-21,57,44,30,30,22,11,85,49,27,30.04,29.98,29.89,10,10,10,14,3,26,0.00,0,,282
2013-1-22,37,32,26,10,0,-8,43,28,14,30.22,30.14,29.98,10,10,10,15,9,28,0.00,1,,296
2013-1-23,46,37,28,21,13,3,61,39,31,30.28,30.18,30.00,10,10,10,12,4,20,0.00,3,,240
2013-1-24,44,34,24,25,10,0,70,36,17,30.46,30.19,29.92,10,10,10,15,8,26,0.00,0,,357
2013-1-25,26,22,19,24,16,4,96,72,46,30.47,30.23,30.08,10,8,2,8,3,,0.09,7,Rain,207
2013-1-26,41,32,24,33,27,23,100,91,73,30.34,30.17,30.06,10,3,0,6,1,,0.00,2,Fog,22
2013-1-27,39,32,24,31,25,20,96,71,53,30.54,30.46,30.36,10,8,3,6,2,,0.01,2,Rain,32
2013-1-28,54,44,35,43,34,28,90,73,62,30.43,30.33,30.21,10,9,6,14,3,18,0.00,5,,193
2013-1-29,71,53,35,57,42,34,100,86,52,30.21,30.15,29.99,10,4,0,14,1,24,0.02,3,Fog,198
2013-1-30,66,58,50,61,58,46,94,87,76,30.01,29.63,29.41,10,7,1,20,11,39,1.51,8,Rain,203
2013-1-31,48,41,34,44,22,16,86,49,34,29.98,29.82,29.46,10,10,9,20,12,32,0.02,1,Rain,274